VR2HK-13 Weather Reports


Display with metric or nautical units.
time (UTC)temp
F
wind
direction
speed
MPH
gust
MPH
rain 1hr
in
rain 24hr
in
rain mn
in
humidity
%
barometer
mb
20260502182426 76 2 1.0 2.0 1.31 4.24 0.00 88 1010.1
20260502182358 76 360 1.0 2.0 1.31 4.24 0.00 88 1010.1
20260502181927 76 171 0.0 3.0 1.32 4.17 0.00 88 1010.2
20260502181849 76 343 1.0 3.0 1.29 4.16 0.00 88 1010.1
20260502181427 76 360 0.0 5.0 1.31 4.12 0.00 88 1010.2
20260502181337 76 30 1.0 5.0 1.31 4.10 0.00 88 1010.2
20260502180926 76 319 0.0 3.0 1.29 4.08 0.00 88 1010.3
20260502180828 76 270 0.0 3.0 1.31 4.08 0.00 88 1010.3
20260502180427 76 315 1.0 2.0 1.25 3.96 0.00 87 1010.4
20260502180319 76 359 1.0 2.0 1.26 3.97 0.00 87 1010.4
20260502170426 76 244 1.0 2.0 1.48 3.50 0.00 87 1011.1
20260502170118 76 297 1.0 2.0 1.42 3.40 0.00 87 1011.0
20260502164037 76 268 0.0 1.0 1.42 3.26 0.00 87 1011.3
20260502163926 76 307 0.0 5.0 1.42 3.25 0.00 87 1011.2
20260502163527 76 302 1.0 5.0 1.37 3.18 0.00 86 1011.3
20260502163426 76 268 3.0 5.0 1.35 3.17 0.00 86 1011.2
20260502163017 76 356 1.0 2.0 1.35 3.14 0.00 86 1011.4
20260502162925 76 318 0.0 3.0 1.33 3.11 0.00 86 1011.4
20260502162507 76 360 1.0 3.0 1.25 3.07 0.00 86 1011.4
20260502162426 76 334 1.0 3.0 1.25 3.06 0.00 86 1011.4
20260502161926 76 332 0.0 4.0 1.26 3.01 0.00 86 1011.5
20260502161447 76 353 0.0 3.0 1.26 3.04 0.00 86 1011.4
20260502161425 76 316 0.0 3.0 1.26 3.04 0.00 86 1011.5
20260502160937 76 169 0.0 3.0 1.29 3.03 0.00 86 1011.5
20260502160926 76 230 0.0 3.0 1.29 3.03 0.00 86 1011.4
20260502160428 76 358 1.0 2.0 1.34 2.99 0.00 86 1011.6
20260502160426 76 353 1.0 2.0 1.34 2.99 0.00 86 1011.6
20260502152306 76 286 0.0 1.0 1.06 2.61 0.00 85 1012.1
20260502151925 76 309 1.0 2.0 1.01 2.58 0.00 85 1012.2
20260502151756 76 53 0.0 2.0 1.01 2.57 0.00 85 1012.2
20260502151425 76 280 0.0 2.0 1.02 2.57 0.00 85 1012.2
20260502151247 76 306 0.0 2.0 1.00 2.49 0.00 85 1012.2
20260502150926 77 295 1.0 2.0 1.05 2.49 0.00 85 1012.1
20260502150737 77 311 1.0 1.0 1.01 2.46 0.00 85 1012.1
20260502150425 77 161 0.0 2.0 1.03 2.41 0.00 85 1012.2
20260502150226 77 353 0.0 3.0 1.03 2.40 0.00 85 1012.1
20260502130424 77 274 2.0 6.0 1.08 2.03 0.00 84 1010.9
20260502130336 77 254 2.0 6.0 1.09 2.03 0.00 84 1011.0
20260502123746 77 23 1.0 6.0 1.09 1.96 0.00 83 1010.6
20260502123424 77 52 0.0 9.0 1.12 1.95 0.00 83 1010.6
20260502123236 77 359 1.0 9.0 1.11 1.94 0.00 83 1010.6
20260502122925 77 64 4.0 7.0 1.07 1.92 0.00 83 1010.5
20260502122725 77 22 2.0 8.0 1.06 1.89 0.00 83 1010.5
20260502122424 77 62 4.0 8.0 1.00 1.87 0.00 83 1010.4
20260502122215 77 263 1.0 4.0 1.01 1.85 0.00 83 1010.3
20260502121924 77 233 2.0 4.0 1.01 1.83 0.00 83 1010.3
20260502121705 77 274 2.0 7.0 1.02 1.82 0.00 83 1010.3
20260502121424 77 317 2.0 7.0 0.94 1.79 0.00 83 1010.3
20260502121156 77 243 3.0 7.0 0.94 1.80 0.00 83 1010.2
20260502120924 77 20 2.0 6.0 0.95 1.82 0.00 83 1010.2
20260502120645 77 319 0.0 5.0 0.99 1.82 0.00 83 1010.2
20260502120423 77 282 2.0 5.0 0.94 1.80 0.00 83 1010.2
20260502120135 77 4 0.0 6.0 0.92 1.79 0.00 83 1010.3
20260502115924 77 58 1.0 6.0 0.94 1.75 0.00 83 1010.4
20260502115625 77 44 2.0 7.0 1.02 1.74 0.00 83 1010.2
20260502115424 77 104 1.0 7.0 1.05 1.76 0.00 83 1010.3
20260502115115 77 77 2.0 7.0 1.01 1.76 0.00 83 1010.2
20260502114923 77 8 1.0 4.0 0.99 1.73 0.00 83 1010.2
20260502114604 77 59 1.0 3.0 0.99 1.72 0.00 83 1010.2
20260502114423 77 342 1.0 3.0 0.96 1.70 0.00 83 1010.1
20260502113924 77 243 0.0 3.0 0.92 1.69 0.00 83 1010.1
20260502113546 77 40 1.0 11.0 0.92 1.72 0.00 83 1010.1
20260502113424 77 324 3.0 11.0 0.88 1.70 0.00 83 1010.0
20260502113034 77 14 1.0 7.0 0.88 1.76 0.00 83 1009.8
20260502112923 77 305 3.0 7.0 0.89 1.76 0.00 83 1009.8
20260502112423 77 4 4.0 7.0 0.90 1.76 0.00 83 1009.8
20260502112015 77 342 2.0 12.0 0.85 1.76 0.00 83 1009.9
20260502111924 77 349 4.0 12.0 0.85 1.76 0.00 83 1009.9
20260502111505 77 18 2.0 10.0 0.93 1.77 0.00 83 1010.0
20260502111424 77 18 1.0 10.0 0.93 1.77 0.00 83 1010.0
20260502110954 77 56 3.0 14.0 0.90 1.79 0.00 83 1010.1
20260502110923 77 29 5.0 14.0 0.90 1.79 0.00 83 1010.1
20260502110445 77 267 3.0 6.0 0.92 1.81 0.00 83 1010.1
20260502110423 77 241 3.0 6.0 0.92 1.81 0.00 83 1010.1
20260502105935 77 287 1.0 3.0 0.89 1.76 0.00 83 1010.0
20260502105924 77 282 1.0 3.0 0.89 1.76 0.00 83 1010.0
20260502105425 77 226 3.0 8.0 0.79 1.68 0.00 82 1010.1
20260502105423 77 236 3.0 8.0 0.79 1.68 0.00 82 1010.1
20260502104923 77 233 3.0 6.0 0.85 1.72 0.00 82 1010.0
20260502104914 77 265 3.0 6.0 0.85 1.70 0.00 82 1010.0
20260502104423 77 267 1.0 7.0 0.86 1.69 0.00 82 1010.0
20260502104405 77 241 1.0 7.0 0.86 1.75 0.00 82 1010.0
20260502103923 78 355 2.0 7.0 0.86 1.73 0.00 82 1010.0
20260502103855 78 32 1.0 9.0 0.88 1.70 0.00 82 1010.0
20260502103423 78 8 6.0 11.0 0.90 1.73 0.00 81 1010.0
20260502103344 78 7 6.0 11.0 0.90 1.72 0.00 81 1010.1
20260502102923 78 350 1.0 6.0 0.92 1.69 0.00 81 1009.9
20260502102834 78 268 3.0 6.0 0.94 1.69 0.00 81 1009.8
20260502102423 78 342 1.0 6.0 0.94 1.69 0.00 81 1009.8
20260502102325 78 104 3.0 7.0 0.98 1.69 0.00 81 1009.8
20260502101923 78 248 5.0 9.0 1.02 1.77 0.00 81 1009.8
20260502101814 78 305 4.0 9.0 0.99 1.73 0.00 81 1009.8
20260502101423 78 319 3.0 8.0 0.98 1.70 0.00 81 1009.9
20260502101304 78 348 2.0 7.0 0.98 1.68 0.00 81 1009.9
20260502100923 78 35 3.0 10.0 1.02 1.70 0.00 81 1009.9
20260502100754 78 184 5.0 8.0 0.98 1.67 0.00 81 1010.0
20260502100423 78 265 2.0 4.0 0.95 1.67 0.00 81 1009.9
20260502100244 78 273 1.0 5.0 0.98 1.68 0.00 81 1009.9
20260502091423 80 302 2.0 7.0 1.03 1.74 0.00 78 1009.5
20260502091104 79 117 0.0 5.0 1.06 1.80 0.00 78 1009.6
20260502090922 79 23 3.0 5.0 1.07 1.82 0.00 78 1009.5
20260502090553 79 194 0.0 7.0 1.08 1.86 0.00 77 1009.6
20260502090422 79 326 1.0 7.0 1.11 1.87 0.00 77 1009.6
20260502071421 81 198 3.0 8.0 1.15 2.11 0.00 76 1010.6
20260502071213 80 19 3.0 12.0 1.18 2.08 0.00 77 1010.6
20260502070922 80 279 7.0 12.0 1.19 2.12 0.00 76 1010.7
20260502070703 80 360 3.0 9.0 1.19 2.12 0.00 76 1010.7
20260502070421 80 356 1.0 12.0 1.16 2.09 0.00 77 1010.7
20260502070153 80 75 7.0 12.0 1.15 2.11 0.00 75 1010.8
20260502065921 80 48 5.0 11.0 1.18 2.11 0.00 76 1010.8
20260502065643 80 18 7.0 11.0 1.22 2.12 0.00 76 1010.9
20260502065422 81 31 2.0 7.0 1.21 2.11 0.00 75 1010.9
20260502065132 81 237 3.0 7.0 1.22 2.15 0.00 76 1011.0
20260502064921 81 301 2.0 7.0 1.22 2.12 0.00 77 1011.0
20260502064623 80 358 3.0 10.0 1.28 2.07 0.00 77 1011.1
20260502064421 80 7 6.0 10.0 1.33 2.09 0.00 76 1011.1
20260502064113 80 356 5.0 11.0 1.34 2.12 0.00 76 1011.2
20260502063922 80 349 4.0 11.0 1.35 2.11 0.00 76 1011.2
20260502063603 80 28 4.0 9.0 1.31 2.09 0.00 76 1011.2
20260502063421 80 54 3.0 10.0 1.29 2.11 0.00 76 1011.2
20260502063052 80 208 5.0 10.0 1.28 2.11 0.00 76 1011.2
20260502062921 80 270 4.0 7.0 1.33 2.09 0.00 76 1011.3
20260502062543 80 350 4.0 10.0 1.33 2.07 0.00 76 1011.4
20260502062421 80 40 6.0 10.0 1.33 2.08 0.00 76 1011.3
20260502062032 80 252 5.0 9.0 1.28 2.07 0.00 76 1011.3
20260502061921 80 226 4.0 8.0 1.28 2.08 0.00 77 1011.3
20260502061522 80 221 4.0 8.0 1.28 2.09 0.00 78 1011.4
20260502061421 80 268 1.0 4.0 1.29 2.11 0.00 78 1011.4
20260502061013 79 322 1.0 7.0 1.26 2.05 0.00 78 1011.6
20260502060921 79 240 2.0 11.0 1.27 2.06 0.00 78 1011.6
20260502060502 79 232 7.0 15.0 1.26 2.02 0.00 77 1011.6
20260502060421 79 240 9.0 15.0 1.26 2.01 0.00 77 1011.6
20260502055952 80 266 6.0 12.0 1.28 2.01 0.00 76 1011.7
20260502055921 80 211 7.0 12.0 1.27 2.00 0.00 76 1011.7
20260502055442 80 25 1.0 4.0 1.25 1.99 0.00 78 1011.8
20260502055421 80 43 2.0 4.0 1.24 2.00 0.00 78 1011.9
20260502054931 79 299 0.0 16.0 1.19 1.96 0.00 77 1011.9
20260502054922 79 354 0.0 16.0 1.19 1.96 0.00 77 1011.9
20260502054423 80 1 3.0 8.0 1.11 1.89 0.00 76 1012.0
20260502054421 80 24 3.0 8.0 1.11 1.89 0.00 76 1012.0
20260502053921 80 74 1.0 8.0 1.01 1.94 0.00 76 1012.1
20260502053912 80 20 1.0 8.0 1.01 1.94 0.00 76 1012.1
20260502053420 81 39 1.0 4.0 1.05 1.96 0.00 76 1012.2
20260502053402 81 337 1.0 4.0 1.05 1.96 0.00 76 1012.2
20260502052920 80 348 3.0 10.0 1.05 1.89 0.00 76 1012.2
20260502052852 80 24 6.0 10.0 1.05 1.89 0.00 76 1012.2
20260502052421 80 326 0.0 14.0 1.03 1.90 0.00 77 1012.3
20260502052342 80 280 2.0 14.0 1.03 1.90 0.00 77 1012.3
20260502051920 80 209 8.0 12.0 1.02 1.93 0.00 75 1012.4
20260502051831 80 206 6.0 12.0 1.02 1.92 0.00 75 1012.4
20260502051421 81 240 5.0 13.0 1.03 1.92 0.00 74 1012.4
20260502051322 81 269 6.0 13.0 1.01 1.88 0.00 74 1012.5
20260502050921 82 343 4.0 8.0 1.02 1.89 0.00 75 1012.5
20260502050812 81 276 3.0 8.0 1.03 1.89 0.00 76 1012.5
20260502050420 80 32 3.0 15.0 1.02 1.87 0.00 76 1012.6
20260502050302 80 360 4.0 15.0 1.00 1.89 0.00 76 1012.7
20260502045920 80 229 3.0 12.0 1.05 1.89 0.00 76 1012.6
20260502045752 80 6 2.0 12.0 1.03 1.88 0.00 76 1012.6
20260502045421 80 43 3.0 11.0 1.02 1.87 0.00 76 1012.8
20260502045242 80 7 5.0 12.0 1.07 1.90 0.00 76 1012.8
20260502044920 80 239 9.0 15.0 1.11 1.92 0.00 75 1012.9
20260502044731 80 241 8.0 15.0 1.12 1.88 0.00 75 1012.9
20260502044420 81 200 7.0 12.0 1.09 1.87 0.00 74 1012.9
20260502043921 81 360 5.0 14.0 1.26 1.99 0.00 74 1013.1
20260502043711 81 93 7.0 14.0 1.29 2.00 0.00 74 1013.0
20260502043420 81 240 4.0 11.0 1.31 2.02 0.00 74 1013.0
20260502043201 81 50 5.0 15.0 1.32 2.02 0.00 73 1013.0
20260502042920 82 3 7.0 15.0 1.27 2.00 0.00 74 1013.0
20260502042652 82 225 3.0 10.0 1.27 2.01 0.00 74 1013.0
20260502042421 81 57 6.0 10.0 1.27 2.03 0.00 74 1013.1
20260502041920 81 224 1.0 8.0 1.28 2.07 0.00 75 1013.2
20260502041632 81 29 5.0 12.0 1.29 2.09 0.00 75 1013.2
20260502041420 81 19 4.0 15.0 1.33 2.09 0.00 75 1013.1
20260502041122 81 17 7.0 15.0 1.38 2.07 0.00 75 1013.2
20260502040919 81 307 4.0 13.0 1.38 2.06 0.00 74 1013.2
20260502040611 81 54 5.0 13.0 1.39 2.03 0.00 75 1013.2
20260502040420 81 47 5.0 15.0 1.39 2.01 0.00 75 1013.2
20260502035920 81 18 7.0 16.0 1.32 1.94 0.00 75 1013.3
20260502035552 81 50 5.0 16.0 1.35 1.94 0.00 74 1013.3
20260502035420 81 279 3.0 12.0 1.39 1.94 0.00 75 1013.3
20260502035041 80 357 9.0 14.0 1.40 1.92 0.00 75 1013.3
20260502034920 81 351 6.0 15.0 1.40 1.88 0.00 76 1013.3
20260502034531 81 257 9.0 15.0 1.41 1.85 0.00 75 1013.4
20260502034420 81 63 5.0 14.0 1.39 1.82 0.00 75 1013.5
20260502034022 80 14 5.0 11.0 1.39 1.77 0.00 76 1013.4
20260502033920 80 17 4.0 7.0 1.35 1.74 0.00 76 1013.5
20260502033511 80 254 3.0 12.0 1.29 1.64 0.00 76 1013.6
20260502033419 80 235 8.0 12.0 1.29 1.66 0.00 76 1013.6
20260502033001 80 229 4.0 13.0 1.29 1.63 0.00 76 1013.6
20260502032920 80 44 6.0 13.0 1.29 1.62 0.00 76 1013.6
20260502032452 79 276 2.0 16.0 1.32 1.62 0.00 77 1013.6
20260502032419 79 287 3.0 16.0 1.32 1.62 0.00 77 1013.6
20260502031941 80 219 4.0 12.0 1.32 1.57 0.00 76 1013.7
20260502031919 80 198 4.0 12.0 1.32 1.57 0.00 76 1013.7
20260502031431 79 345 1.0 10.0 1.28 1.51 0.00 77 1013.6
20260502031420 79 349 1.0 10.0 1.28 1.51 0.00 77 1013.6
20260502030922 80 235 8.0 14.0 1.31 1.42 0.00 75 1013.6
20260502030920 80 236 8.0 14.0 1.31 1.42 0.00 75 1013.6
20260502030419 81 208 8.0 12.0 1.32 1.40 0.00 76 1013.6
20260502030411 81 228 7.0 11.0 1.32 1.40 0.00 76 1013.6
20260502025920 79 25 1.0 4.0 1.33 1.38 0.00 79 1013.6
20260502025901 79 43 2.0 4.0 1.33 1.38 0.00 79 1013.6
20260502025420 78 298 1.0 5.0 1.29 1.33 0.00 80 1013.7
20260502025351 78 246 1.0 5.0 1.29 1.33 0.00 80 1013.6
20260502024919 77 174 3.0 10.0 1.25 1.25 0.00 80 1013.8
20260502024419 77 222 7.0 11.0 1.21 1.27 0.00 80 1013.9
20260502024331 77 225 2.0 7.0 1.21 1.25 0.00 80 1013.9
20260502023919 77 45 1.0 9.0 1.20 1.21 0.00 80 1014.0
20260502023820 77 37 4.0 9.0 1.20 1.22 0.00 80 1014.0
20260502023419 77 143 4.0 16.0 1.21 1.22 0.00 80 1014.0
20260502023311 77 51 4.0 18.0 1.25 1.23 0.00 80 1014.0
20260502022919 77 81 12.0 18.0 1.22 1.20 0.00 79 1014.1
20260502022801 77 46 8.0 14.0 1.24 1.20 0.00 80 1014.0
20260502022420 77 56 1.0 8.0 1.24 1.20 0.00 80 1014.0
20260502022251 77 31 3.0 8.0 1.28 1.22 0.00 80 1014.0
20260502021919 77 27 1.0 11.0 1.32 1.18 0.00 80 1013.9
20260502021740 77 67 7.0 11.0 1.35 1.17 0.00 80 1013.8
20260502021419 77 30 3.0 8.0 1.39 1.14 0.00 80 1013.8
20260502021231 77 51 5.0 8.0 1.32 1.08 0.00 80 1013.8
20260502020920 78 48 3.0 9.0 1.29 1.09 0.00 80 1013.8
20260502020721 77 132 2.0 9.0 1.33 1.05 0.00 80 1013.7
20260502020419 77 40 1.0 14.0 1.32 1.01 0.00 80 1013.8
20260502020210 77 48 9.0 14.0 1.28 1.03 0.00 79 1013.8
20260502015919 77 74 5.0 9.0 1.33 0.99 0.00 80 1013.8
20260502015700 77 27 4.0 9.0 1.37 0.98 0.00 80 1013.7
20260502015419 77 333 0.0 3.0 1.35 0.94 0.00 80 1013.7
20260502015151 77 360 1.0 6.0 1.34 0.95 0.00 80 1013.8
20260502014918 77 35 1.0 9.0 1.34 0.92 0.00 80 1013.7
20260502014640 77 147 5.0 8.0 1.37 0.91 0.00 80 1013.8
20260502014419 77 2 1.0 8.0 1.38 0.92 0.00 80 1013.8
20260502014130 77 337 2.0 8.0 1.38 0.96 0.00 80 1013.7
20260502013919 77 259 4.0 10.0 1.40 0.89 0.00 80 1013.7
20260502013621 77 43 5.0 13.0 1.41 0.85 0.00 80 1013.7
20260502013419 77 106 8.0 13.0 1.41 0.85 0.00 80 1013.7
20260502013110 77 17 6.0 12.0 1.40 0.84 0.00 81 1013.7
20260502012919 76 93 5.0 12.0 1.40 0.83 0.00 81 1013.7
20260502012600 76 1 3.0 10.0 1.47 0.81 0.00 80 1013.7
20260502012419 76 343 1.0 12.0 1.46 0.77 0.00 80 1013.7
20260502012051 77 64 4.0 12.0 1.41 0.71 0.00 80 1013.6
20260502011919 77 49 2.0 10.0 1.35 0.69 0.00 81 1013.6
20260502011540 76 10 2.0 7.0 1.33 0.59 0.00 82 1013.5
20260502011418 76 43 3.0 7.0 1.33 0.56 0.00 82 1013.5
20260502011030 76 31 1.0 4.0 1.40 0.53 0.00 82 1013.5
20260502010919 76 299 1.0 4.0 1.41 0.52 0.00 82 1013.5
20260502010520 75 41 0.0 10.0 1.42 0.44 0.00 82 1013.6
20260502010419 75 38 2.0 11.0 1.40 0.42 0.00 82 1013.5
20260502005918 75 53 5.0 10.0 1.40 0.37 0.00 82 1013.7
20260502005500 75 81 2.0 11.0 1.39 0.29 0.00 82 1013.6
20260502005418 75 8 6.0 11.0 1.39 0.26 0.00 82 1013.6
20260502004950 75 61 3.0 11.0 1.41 0.17 0.00 82 1013.5
20260502004919 75 30 3.0 11.0 1.41 0.17 0.00 82 1013.6
20260502004440 75 70 4.0 8.0 1.44 0.10 0.00 82 1013.4
20260502004420 75 358 3.0 10.0 1.44 0.10 0.00 82 1013.4
20260502003929 75 45 3.0 14.0 1.41 9.98 0.00 82 1013.5
20260502003918 75 70 3.0 14.0 1.41 9.98 0.00 82 1013.5
20260502003421 76 76 7.0 12.0 1.37 9.88 0.00 82 1013.4
20260502003418 76 48 6.0 12.0 1.37 9.88 0.00 82 1013.4
20260502002910 75 52 4.0 11.0 1.34 9.81 0.00 82 1013.4
20260502002418 76 52 3.0 7.0 1.24 9.66 0.00 81 1013.3
20260502002359 76 41 3.0 6.0 1.24 9.66 0.00 81 1013.4
20260502001918 76 17 4.0 8.0 1.25 9.61 0.00 81 1013.4
20260502001850 76 57 4.0 8.0 1.22 9.59 0.00 81 1013.4
20260502001418 76 44 2.0 11.0 1.13 9.51 0.00 81 1013.4
20260502001340 76 39 1.0 11.0 1.11 9.46 0.00 81 1013.3
20260502000918 76 52 4.0 10.0 1.02 9.34 0.00 81 1013.3
20260502000829 76 52 4.0 10.0 0.98 9.29 0.00 81 1013.3
20260502000418 76 357 3.0 19.0 0.94 9.20 0.00 81 1013.3
20260502000319 76 66 3.0 19.0 0.95 9.19 0.00 81 1013.3
20260501235918 75 31 6.0 14.0 0.92 9.12 0.00 81 1013.1
20260501235810 76 61 7.0 10.0 0.88 9.07 0.00 81 1013.2
20260501235418 76 26 3.0 16.0 0.85 9.01 0.00 82 1013.0
20260501235259 75 51 3.0 16.0 0.83 8.98 0.00 82 1013.0
20260501234918 75 64 5.0 16.0 0.75 8.88 0.00 81 1013.0
20260501234750 75 360 7.0 16.0 0.69 8.82 0.00 81 1013.0
20260501234418 75 60 4.0 11.0 0.64 8.76 0.00 81 1013.0
20260501234240 75 51 2.0 11.0 0.62 8.73 0.00 81 1013.0
20260501233917 75 30 3.0 8.0 0.55 8.66 0.00 82 1013.0
20260501233729 75 50 5.0 8.0 0.51 8.64 0.00 82 1013.0
20260501233418 75 92 1.0 8.0 0.51 8.62 0.00 82 1013.0
20260501233219 75 58 3.0 11.0 0.48 8.59 0.00 82 1013.0
20260501232918 75 68 4.0 14.0 0.46 8.57 0.00 82 1013.0
20260501232710 75 12 5.0 14.0 0.43 8.54 0.00 82 1013.0
20260501232417 75 75 4.0 17.0 0.41 8.51 0.00 82 1013.0
20260501232159 75 360 6.0 17.0 0.40 8.50 0.00 82 1013.0
20260501231918 75 52 1.0 6.0 0.35 8.46 0.00 82 1013.0
20260501231649 75 248 2.0 6.0 0.35 8.47 0.00 82 1012.9
20260501231418 75 263 3.0 6.0 0.34 8.46 0.00 83 1012.9
20260501231140 75 252 1.0 10.0 0.29 8.43 0.00 83 1013.0
20260501230917 75 37 5.0 19.0 0.29 8.42 0.00 83 1013.0
20260501230629 75 289 1.0 19.0 0.24 8.37 0.00 83 1012.8
20260501230418 75 351 2.0 15.0 0.24 8.37 0.00 83 1012.8
20260501230119 75 283 7.0 15.0 0.20 8.33 0.00 83 1012.7
20260501225918 75 333 3.0 9.0 0.20 8.31 0.00 83 1012.7
20260501225608 74 346 4.0 9.0 0.18 8.28 0.00 83 1012.8
20260501225417 74 8 2.0 9.0 0.17 8.27 0.00 83 1012.7
20260501225059 74 41 3.0 9.0 0.15 8.23 0.00 83 1012.8
20260501224918 74 47 2.0 12.0 0.15 8.23 0.00 83 1012.7
20260501224549 74 167 7.0 15.0 0.16 8.24 0.00 83 1012.7
20260501224418 74 29 4.0 15.0 0.15 8.24 0.00 83 1012.7
20260501224039 74 96 4.0 13.0 0.12 8.22 0.00 83 1012.6
20260501223917 74 58 5.0 13.0 0.12 8.22 0.00 83 1012.7
20260501223529 74 72 2.0 5.0 0.11 8.21 0.00 83 1012.5
20260501223417 74 315 2.0 8.0 0.10 8.20 0.00 83 1012.5
20260501223019 74 42 3.0 10.0 0.10 8.18 0.00 83 1012.5
20260501222918 74 23 5.0 10.0 0.10 8.18 0.00 83 1012.5
20260501222417 74 20 4.0 9.0 0.12 8.17 0.00 83 1012.5
20260501221959 74 51 6.0 10.0 0.14 8.17 0.00 83 1012.5
20260501221917 74 52 3.0 10.0 0.14 8.17 0.00 83 1012.6
20260501221449 74 87 2.0 15.0 0.14 8.17 0.00 83 1012.6
20260501221418 74 14 4.0 15.0 0.14 8.17 0.00 83 1012.6
20260501220938 74 317 4.0 8.0 0.12 8.16 0.00 83 1012.7
20260501220917 74 40 4.0 8.0 0.12 8.16 0.00 83 1012.7
20260501220429 74 32 6.0 12.0 0.11 8.15 0.00 83 1012.7
20260501220417 74 71 7.0 12.0 0.11 8.15 0.00 83 1012.7
20260501215918 74 4 2.0 11.0 0.11 8.14 0.00 83 1012.7
20260501215417 74 64 5.0 14.0 0.10 8.11 0.00 83 1012.8
20260501215408 74 56 5.0 14.0 0.10 8.11 0.00 83 1012.8
20260501214917 74 31 4.0 13.0 0.10 8.10 0.00 83 1012.8
20260501214859 74 48 2.0 10.0 0.10 8.10 0.00 83 1012.7
20260501214417 74 20 7.0 16.0 0.09 8.09 0.00 83 1012.6
20260501214349 74 346 10.0 16.0 0.09 8.09 0.00 83 1012.6
20260501213917 75 357 4.0 9.0 0.11 8.09 0.00 83 1012.6
20260501213838 75 284 1.0 9.0 0.11 8.09 0.00 83 1012.5
20260501213417 74 15 4.0 20.0 0.11 8.09 0.00 83 1012.5
20260501212917 75 75 4.0 9.0 0.11 8.08 0.00 84 1012.5
20260501212818 75 1 4.0 8.0 0.11 8.08 0.00 84 1012.6
20260501212417 75 348 2.0 7.0 0.09 8.04 0.00 84 1012.5
20260501212308 75 335 2.0 12.0 0.09 8.04 0.00 84 1012.5
20260501211917 75 273 8.0 14.0 0.08 8.03 0.00 84 1012.4
20260501211759 74 68 1.0 14.0 0.08 8.03 0.00 84 1012.5
20260501211416 75 208 3.0 10.0 0.10 8.03 0.00 84 1012.6
20260501211248 75 256 4.0 10.0 0.10 8.03 0.00 84 1012.6
20260501210917 75 262 2.0 12.0 0.11 8.03 0.00 84 1012.6
20260501210738 75 11 6.0 12.0 0.12 8.03 0.00 84 1012.6
20260501210417 75 270 1.0 11.0 0.14 8.03 0.00 84 1012.6
20260501210228 75 289 6.0 11.0 0.14 8.03 0.00 84 1012.7
20260501205916 75 257 2.0 4.0 0.15 8.02 0.00 84 1012.7
20260501205718 75 281 0.0 5.0 0.15 8.01 0.00 84 1012.7
20260501205417 75 203 2.0 5.0 0.17 8.01 0.00 84 1012.6
20260501205208 75 319 0.0 12.0 0.20 8.01 0.00 84 1012.6
20260501204917 75 293 1.0 12.0 0.18 7.99 0.00 84 1012.5
20260501204658 75 58 1.0 9.0 0.23 7.99 0.00 84 1012.5
20260501204416 75 272 1.0 9.0 0.24 7.99 0.00 84 1012.4
20260501203916 75 210 0.0 8.0 0.22 7.97 0.00 84 1012.4
20260501203638 75 26 1.0 3.0 0.25 7.97 0.00 84 1012.4
20260501203417 75 35 0.0 9.0 0.25 7.97 0.00 84 1012.3
20260501203128 75 272 3.0 10.0 0.24 7.96 0.00 84 1012.2
20260501202917 75 350 2.0 10.0 0.25 7.96 0.00 84 1012.2
20260501202617 75 79 4.0 9.0 0.25 7.96 0.00 84 1012.3
20260501202416 75 40 0.0 4.0 0.25 7.95 0.00 84 1012.3
20260501202108 75 335 0.0 5.0 0.27 7.95 0.00 84 1012.4
20260501201916 75 17 1.0 5.0 0.29 7.95 0.00 84 1012.3
20260501201558 75 74 2.0 9.0 0.29 7.92 0.00 84 1012.3
20260501201417 75 10 4.0 9.0 0.29 7.92 0.00 84 1012.2
20260501201048 75 30 4.0 11.0 0.31 7.92 0.00 84 1012.2
20260501200916 75 25 5.0 11.0 0.30 7.91 0.00 84 1012.2
20260501200538 75 35 5.0 11.0 0.31 7.90 0.00 83 1012.2
20260501200416 75 40 7.0 11.0 0.30 7.89 0.00 83 1012.2
20260501200028 75 219 0.0 8.0 0.34 7.88 0.00 83 1012.2
20260501195917 75 226 3.0 8.0 0.34 7.87 0.00 83 1012.1
20260501195517 75 9 1.0 8.0 0.33 7.83 0.00 83 1012.0
20260501195416 75 48 3.0 8.0 0.34 7.83 0.00 83 1012.0
20260501195007 75 56 2.0 15.0 0.35 7.81 0.00 83 1012.1
20260501194916 75 9 1.0 15.0 0.35 7.81 0.00 83 1012.1
20260501194458 75 48 6.0 11.0 0.34 7.75 0.00 83 1012.1
20260501194416 75 57 3.0 10.0 0.34 7.75 0.00 83 1012.1
20260501193947 75 31 2.0 11.0 0.37 7.75 0.00 83 1012.2
20260501193916 75 29 4.0 11.0 0.37 7.75 0.00 83 1012.2
20260501193437 75 39 2.0 12.0 0.41 7.71 0.00 82 1012.4
20260501193416 75 58 2.0 12.0 0.41 7.71 0.00 82 1012.4
20260501192927 75 27 2.0 9.0 0.49 7.71 0.00 82 1012.3
20260501192916 75 311 3.0 9.0 0.49 7.71 0.00 82 1012.3
20260501192419 75 17 3.0 7.0 0.53 7.70 0.00 82 1012.3
20260501192416 75 12 3.0 7.0 0.53 7.70 0.00 82 1012.3
20260501191916 75 25 0.0 5.0 0.55 7.66 0.00 82 1012.4
20260501191416 75 65 3.0 7.0 0.57 7.64 0.00 82 1012.5
20260501191357 75 360 3.0 7.0 0.57 7.62 0.00 82 1012.5
20260501190916 75 41 1.0 2.0 0.61 7.62 0.00 82 1012.5
20260501190847 75 360 0.0 1.0 0.61 7.62 0.00 82 1012.5
20260501190416 75 344 0.0 2.0 0.62 7.59 0.00 82 1012.6
20260501190337 75 11 1.0 3.0 0.62 7.59 0.00 82 1012.6
20260501185916 75 4 2.0 6.0 0.66 7.53 0.00 82 1012.5
20260501185827 75 24 1.0 6.0 0.66 7.55 0.00 82 1012.5
20260501185415 75 257 2.0 6.0 0.69 7.52 0.00 82 1012.5
20260501185317 75 34 3.0 6.0 0.70 7.52 0.00 82 1012.5
20260501184915 75 39 3.0 10.0 0.74 7.49 0.00 82 1012.5
20260501184807 75 32 3.0 12.0 0.75 7.48 0.00 82 1012.5
20260501184416 75 46 7.0 12.0 0.74 7.44 0.00 82 1012.6
20260501184257 75 69 2.0 11.0 0.76 7.43 0.00 82 1012.6
20260501183916 75 51 6.0 15.0 0.76 7.40 0.00 82 1012.6
20260501183747 75 18 8.0 15.0 0.76 7.36 0.00 82 1012.6
20260501183415 75 7 3.0 9.0 0.75 7.33 0.00 82 1012.5
20260501183237 75 24 2.0 9.0 0.76 7.31 0.00 82 1012.5
20260501182916 75 39 3.0 11.0 0.76 7.24 0.00 82 1012.5